Orbital Elements at Epoch 2459200.5 (2020-Dec-17.0) TDB
Reference: JPL 31 (heliocentric ecliptic J2000)
Element | Value | Uncertainty (1-sigma) | Units |
e | .04660638209955314 | 3.712e-08 | |
a | 3.039518746054609 | 1.6747e-08 | au |
q | 2.897857773977234 | 1.1031e-07 | au |
i | 9.306725641581147 | 4.2492e-06 | deg |
node | 233.1416288590286 | 2.1127e-05 | deg |
peri | 28.44762207991641 | 4.8106e-05 | deg |
M | 153.4169505439612 | 4.4507e-05 | deg |
tp | 2458375.647088867479 (2018-Sep-14.14708887) | 0.00023803 | TDB |
period | 1935.555666794578 5.30 | 1.5997e-05 4.38e-08 | d yr |
n | .1859931006769681 | 1.5372e-09 | deg/d |
Q | 3.181179718131985 | 1.7527e-08 | au |
|
| | Orbit Determination Parameters
Additional Information
|